Regional Weather Roundup
Issued by NWS Albany, NY

Home | Current Version | Previous Version | Graphics & Text | Print | Product List | Glossary Off
Versions: 1 2 3 4 5 6 7 8 9 10 11 12 13 14 15 16 17 18 19 20 21 22 23 24 25 26 27 28 29 30 31 32 33 34 35 36 37 38 39 40 41 42 43 44 45 46 47 48 49 50

000
ASUS41 KALY 301010
RWRALY

NEW YORK STATE HOURLY WEATHER ROUNDUP
NATIONAL WEATHER SERVICE ALBANY NY
600 AM EDT WED JUL 30 2014

NOTE: "FAIR" INDICATES FEW OR NO CLOUDS BELOW 12,000 FEET WITH NO
SIGNIFICANT WEATHER AND/OR NO OBSTRUCTIONS TO VISIBILITY.

NYZ032-033-038>043-046>054-057>066-NYZ062>081-301100-
EAST


CITY           SKY/WX    TMP DP  RH WIND       PRES   REMARKS
ALBANY         CLOUDY    60  54  80 CALM      30.00R
GLENS FALLS    CLOUDY    58  54  86 CALM      30.00R
POUGHKEEPSIE   CLOUDY    60  58  92 CALM      29.99R
MONTGOMERY     PTCLDY    56  54  93 CALM      30.01R
WHITE PLAINS   CLEAR     56  53  90 NW5       29.99R
ISLIP          PTCLDY    63  55  75 CALM      29.97R
NEW YORK CITY  MOCLDY    65  54  67 NW9       29.99R
CENTRAL PARK   CLEAR     63  53  70 VRB7      30.02R
$$

NYZ005>009-017-018-044>046-055-056-301100-
CENTRAL


CITY           SKY/WX    TMP DP  RH WIND       PRES   REMARKS
FULTON         PTCLDY    52  50  93 CALM      29.98S
SYRACUSE       PTCLDY    53  50  89 E5        29.99R
ROME           CLEAR     49  48  97 SE5       30.02S
ELMIRA         FOG       51  51 100 CALM      30.02R VSB<1/4
BINGHAMTON     CLEAR     52  50  93 S3        30.02R
MONTICELLO     CLEAR     50  48  93 CALM      30.04R
$$

NYZ026>034-041>043-301100-
NORTH


CITY           SKY/WX    TMP DP  RH WIND       PRES   REMARKS
WATERTOWN      CLOUDY    58  49  72 S5        29.97R
FORT DRUM      NOT AVBL
MASSENA        PTCLDY    53  51  93 CALM      29.98R
SARANAC LAKE   PTCLDY    37  37 100 CALM      30.01R FOG
PLATTSBURGH    CLOUDY    51  50  96 CALM      30.00R
$$

NYZ001>004-010>016-019>021-301100-
WEST


CITY           SKY/WX    TMP DP  RH WIND       PRES   REMARKS
NIAGARA FALLS  MOCLDY    60  57  89 S7        29.94S THUNDER
BUFFALO        CLOUDY    58  53  84 S8        29.96R
DUNKIRK        CLOUDY    58  54  86 S8        29.96S
JAMESTOWN      CLOUDY    54  52  94 S6        30.01R
WELLSVILLE     CLOUDY    54  48  80 W5        30.03S
ROCHESTER      MOCLDY    57  52  83 SW7       29.97R
PENN YAN       MOCLDY    55  53  93 SW8       30.00S
$$

             KEY
       WCI = WIND CHILL INDEX
       VSB = VISIBILITY
       HX  = HEAT INDEX
$$



USA.gov is the U.S. government's official web portal to all federal, state and local government web resources and services.